DUBAISAT-2

Last updated on Mon Oct 14 2024 00:02:24 GMT+0000 (Coordinated Universal Time)

1 39419U 13066D 24287.47397403 .00008724 00000+0 66067-3 0 9990 2 39419 97.4298 287.1808 0011691 334.4489 25.6157 15.02463590594272
UTC large
Height (km)
Speed (km/s)
/
Latitude / Longitude
Inclination (degrees)
Orbital Period (minutes)
Azimuth
Elevation
Range (km)
Doppler Factor

Next 0 passes for location: London (51.5072 / 0.1276)

Sorry there are no passes over London.